GFSGL_925_spd_000.txt.gz
Wind_Speed
6 6 6 7 8 9 9 10 10 8 9 12 12 11 9 9 11 14 17 18 17 19 18 20 25 24 26 25 20 11 9 14 13 15 13 13 12 13 13 11 12 14 14
8 7 7 7 8 9 10 11 12 13 13 13 17 11 8 7 5 6 13 14 16 18 17 20 20 21 18 14 15 12 9 8 14 17 17 17 14 12 12 11 12 11 10
11 9 8 8 9 9 10 11 13 15 14 15 16 19 16 12 13 10 14 16 15 16 16 17 20 16 16 14 13 11 9 9 13 17 19 16 13 11 11 9 8 8 7
12 11 11 10 11 10 10 11 12 14 16 16 17 17 15 10 12 16 17 18 17 16 14 15 14 15 16 16 12 11 13 13 14 14 15 13 12 11 10 10 8 9 10
13 13 12 12 12 11 11 10 12 12 14 16 17 17 17 15 13 15 16 16 18 18 17 15 12 14 15 12 11 10 13 13 13 12 12 11 9 8 13 11 14 12 13
15 13 14 14 13 12 11 11 12 12 13 14 14 15 16 15 18 18 15 15 15 16 15 14 15 13 12 11 9 12 12 11 11 9 8 6 7 10 12 16 13 14 15
16 15 14 15 15 14 13 12 11 11 12 14 14 13 12 13 13 15 16 14 14 14 13 12 12 11 10 10 10 9 10 9 6 5 5 7 9 14 15 15 17 18 20
17 16 15 16 17 16 15 13 12 10 11 11 10 10 10 10 9 9 10 9 9 9 8 8 7 7 7 6 6 5 4 6 10 10 10 10 10 8 14 15 15 18 20
20 19 17 17 18 18 17 15 14 13 12 11 10 9 8 8 10 10 10 9 8 7 6 5 5 5 7 9 9 9 9 8 12 12 11 12 14 15 13 12 16 16 20
23 21 19 18 19 20 19 17 15 13 13 12 10 9 9 8 11 11 12 10 10 9 8 8 13 10 14 14 10 10 8 6 6 6 10 13 16 18 20 22 18 20 21
24 22 21 19 19 19 19 17 16 15 14 13 11 10 10 10 11 13 15 11 12 12 11 11 11 14 14 12 9 5 5 5 7 9 10 11 11 12 13 16 18 20 22
26 25 23 21 20 20 20 19 17 16 14 14 13 12 12 11 13 16 17 13 11 10 9 8 7 10 10 9 9 9 9 10 9 11 13 14 14 14 13 13 14 17 19
27 27 26 23 21 20 21 19 19 18 18 17 17 15 14 14 13 16 18 18 13 8 5 8 10 7 9 11 12 13 13 11 12 13 14 14 12 11 12 14 16 18 21
29 27 27 26 24 22 21 20 20 20 19 19 18 17 17 16 16 14 19 19 20 17 13 11 11 10 10 9 10 13 14 12 11 12 12 12 12 13 13 12 15 16 19
32 30 29 27 28 25 24 24 23 22 22 21 20 19 19 18 19 18 15 14 13 14 11 9 7 7 8 10 9 8 7 7 8 8 10 9 11 12 13 11 15 14 18
31 32 31 30 29 26 25 23 24 21 26 24 19 19 17 12 14 18 16 12 11 12 10 11 10 7 7 6 5 4 2 1 4 6 7 9 12 13 16 18 14 14 18
34 32 32 31 29 29 28 26 23 26 21 27 26 23 17 13 13 11 10 8 10 12 10 8 7 7 5 3 2 1 3 5 5 5 6 9 12 14 13 16 18 19 20
35 34 34 34 31 30 30 28 26 25 26 25 27 26 24 21 18 13 11 13 9 9 9 8 6 5 6 7 7 8 8 9 10 11 8 7 8 11 14 15 18 18 19
35 34 35 32 34 32 30 29 28 26 24 26 18 12 16 17 18 17 17 13 10 8 8 7 6 9 10 13 15 15 13 12 8 6 7 9 8 9 13 15 17 18 18
33 34 31 32 28 28 28 27 27 26 24 23 23 16 17 17 14 14 11 10 10 11 12 14 14 16 14 14 14 10 6 6 4 2 5 8 9 9 11 13 15 17 18
27 29 32 31 30 28 27 27 25 24 24 23 21 19 19 14 15 16 16 16 17 18 18 20 18 16 14 12 12 7 5 6 7 5 5 6 7 9 10 13 15 16 18
23 26 27 30 29 26 27 25 25 24 23 17 15 17 23 18 20 22 22 21 20 19 17 16 16 17 10 13 11 6 5 6 6 4 5 6 8 10 11 13 14 15 17
22 23 23 26 27 25 23 26 25 24 18 19 22 26 21 23 24 25 25 23 20 21 17 17 14 13 14 10 11 7 6 4 3 4 6 7 9 11 12 14 16 17 18
22 20 21 22 27 26 25 24 19 19 21 22 25 26 26 27 27 27 27 27 28 25 20 15 15 11 12 11 9 8 5 5 4 5 6 8 10 11 12 13 16 17 17
18 18 20 20 20 23 22 24 24 25 25 26 25 27 27 28 29 30 30 31 32 31 24 16 14 14 13 12 11 9 9 8 9 10 7 8 10 12 13 15 17 19 20
18 19 17 22 22 25 27 27 29 31 31 31 31 31 30 28 27 29 29 26 23 18 24 19 17 16 14 12 11 9 8 8 10 9 5 8 12 14 15 18 20 21 21

GFSGL_925_spd_003.txt.gz
Wind_Speed
7 6 6 8 9 8 10 12 12 11 11 12 10 12 15 17 17 20 20 20 18 17 19 11 17 21 23 31 26 24 19 14 9 13 14 16 15 12 13 10 10 9 13
9 8 8 8 9 10 12 14 14 14 13 12 11 13 14 14 17 19 19 19 22 22 20 18 19 21 25 29 27 20 15 17 19 14 14 15 14 11 12 9 9 9 14
11 10 9 9 9 11 13 14 14 14 13 16 15 17 14 13 14 14 20 21 23 22 24 24 24 27 28 29 25 17 11 10 16 16 14 14 13 11 10 8 8 9 5
12 12 11 11 11 12 13 14 15 14 16 13 15 14 13 13 16 17 19 20 22 23 25 26 25 29 25 20 22 20 15 14 14 15 15 14 11 10 10 11 10 11 12
13 14 13 13 12 12 12 13 15 14 15 15 12 10 14 12 15 17 17 19 22 22 21 20 18 19 19 16 17 15 14 14 15 14 14 13 12 12 14 13 14 13 15
14 15 15 15 14 13 12 13 13 14 14 14 15 15 15 16 17 18 18 19 19 18 16 18 19 20 17 14 18 16 14 13 12 12 12 11 12 12 11 12 12 13 14
16 16 18 17 17 15 14 14 13 12 11 11 12 14 14 16 17 17 17 16 17 17 17 18 17 16 14 14 15 15 12 11 7 3 2 6 7 10 11 13 15 14 16
18 17 18 19 18 18 16 15 14 12 12 12 11 12 11 13 14 14 16 15 15 13 13 12 13 12 11 11 12 11 9 9 10 7 5 6 6 8 10 13 13 15 19
20 19 19 20 20 19 18 16 15 15 14 12 10 10 9 9 10 12 11 13 12 11 11 10 11 11 14 13 12 12 11 9 10 10 10 11 12 11 13 9 13 16 18
22 21 20 20 21 21 19 18 16 15 14 14 12 10 8 8 11 12 10 9 11 10 9 11 13 11 15 16 11 11 9 8 7 7 10 11 13 16 18 19 16 18 18
23 22 21 20 21 21 19 18 17 16 15 14 13 12 11 10 12 13 14 5 13 12 12 11 12 14 18 16 10 6 5 5 5 7 7 10 10 10 10 11 11 10 17
24 23 22 21 21 21 20 19 18 17 15 14 13 13 13 12 11 16 18 9 13 11 10 10 10 13 13 11 9 7 8 9 6 9 11 12 12 12 11 4 5 9 14
26 25 24 22 21 22 22 21 20 19 18 18 17 16 16 16 14 17 20 12 15 5 9 11 9 11 10 10 12 11 11 7 7 9 10 11 11 7 12 12 10 13 19
27 25 24 24 22 22 21 21 21 21 20 19 19 18 18 19 18 18 21 21 20 10 7 9 10 10 11 10 11 13 13 8 7 9 11 10 9 10 9 11 16 19 20
27 26 25 25 25 23 23 23 23 22 22 21 20 20 20 20 22 21 22 20 18 16 11 9 8 9 10 10 9 9 7 7 5 2 6 6 10 13 11 10 12 15 16
28 29 29 28 27 24 23 22 23 19 24 20 18 19 21 21 23 24 21 19 17 15 15 12 13 13 13 12 12 12 7 4 4 3 3 4 5 7 9 15 14 15 17
30 29 29 28 28 27 26 24 23 24 22 26 19 14 10 18 19 28 25 21 19 17 15 14 15 14 10 7 5 5 14 9 6 5 7 8 10 12 14 15 14 14 18
32 30 30 31 28 29 27 27 25 25 24 22 28 22 15 18 22 23 23 20 18 20 15 15 10 8 8 8 10 12 12 11 9 8 4 1 5 8 12 13 15 18 18
32 32 33 29 31 28 28 28 27 26 26 25 23 25 26 21 19 18 18 17 17 17 14 13 11 11 10 11 12 13 14 11 6 4 6 6 8 10 11 13 14 15 18
31 33 30 30 28 29 29 29 27 26 24 27 28 24 22 24 19 19 21 18 17 16 14 14 12 14 14 15 14 11 8 10 7 5 7 8 8 8 10 12 14 16 17
29 30 34 31 30 28 28 26 26 24 23 24 26 30 31 29 23 22 22 21 18 16 17 18 19 20 17 17 16 13 10 9 5 6 6 5 6 8 10 11 13 14 16
25 26 31 34 30 28 28 26 22 23 21 22 12 32 34 24 22 21 19 18 18 21 22 22 22 20 19 19 15 17 8 6 5 4 5 5 6 8 10 11 13 15 16
22 23 25 29 30 28 24 27 25 22 19 20 24 26 27 20 21 21 21 20 22 22 22 21 22 21 17 21 17 13 11 7 5 4 4 4 6 7 10 10 14 17 19
20 19 20 23 26 26 26 22 25 21 18 25 26 25 23 24 25 25 24 24 24 24 22 20 18 20 19 14 13 10 9 9 5 3 3 4 6 8 11 12 16 17 18
19 19 19 19 18 21 22 20 17 17 21 26 25 26 29 29 29 29 28 26 25 27 29 27 21 18 19 15 12 13 13 10 7 6 3 4 7 10 12 14 16 17 18
14 12 14 15 17 20 21 23 22 21 24 25 27 30 33 32 31 31 30 30 30 31 29 26 21 17 16 17 16 14 10 7 6 6 5 6 9 11 12 14 16 17 19

GFSGL_925_spd_006.txt.gz
Wind_Speed
5 5 4 8 6 9 10 12 11 14 13 14 18 18 19 18 24 23 22 24 24 24 23 23 26 27 29 32 28 23 24 12 14 14 17 20 18 16 14 16 13 9 9
8 8 5 8 8 10 13 14 12 13 15 15 16 17 19 21 22 21 22 22 25 23 23 24 28 26 28 27 26 22 26 14 21 18 21 21 17 13 10 15 11 15 14
10 10 6 10 11 11 11 14 15 15 18 14 14 14 15 20 18 18 19 19 20 22 21 24 25 24 29 30 29 24 16 13 20 21 18 17 15 11 14 15 16 15 9
12 13 8 10 13 11 10 11 14 15 18 19 16 12 14 16 14 18 19 20 20 21 22 19 21 23 29 31 29 21 11 18 21 20 18 20 19 19 16 15 15 17 12
14 16 11 10 11 12 11 12 15 17 18 15 15 13 14 18 18 21 21 21 21 23 22 20 23 25 25 25 26 18 10 20 22 21 20 18 20 19 19 18 17 16 20
14 17 14 13 11 12 13 12 14 15 15 17 17 14 16 18 18 23 26 23 22 24 24 23 27 27 19 19 17 15 16 20 20 19 19 21 20 22 18 21 20 19 13
15 18 17 15 13 13 13 11 11 12 13 20 15 19 19 20 21 21 22 23 23 23 23 23 22 23 18 23 19 19 12 20 13 11 20 19 20 20 18 18 19 16 16
17 19 19 18 16 15 16 14 12 10 12 17 16 18 19 19 19 19 19 20 21 22 22 20 20 19 18 19 18 14 10 10 8 6 7 7 7 8 6 12 12 12 14
19 20 21 20 21 18 16 19 15 11 12 12 16 13 15 17 17 19 18 17 18 16 18 19 17 18 17 17 15 14 13 12 12 11 8 7 7 8 9 9 7 9 11
21 20 21 21 22 21 19 20 18 15 13 11 13 13 12 15 15 13 16 14 15 12 12 14 15 14 16 16 14 15 14 10 7 7 7 8 8 9 10 11 12 12 10
22 21 22 23 23 22 20 21 18 16 15 13 15 13 11 11 15 17 13 8 16 14 11 14 12 12 17 13 14 14 9 7 7 4 4 5 8 10 10 7 3 4 5
23 22 23 23 23 23 24 22 20 18 15 16 15 15 13 11 13 18 16 9 16 15 17 17 16 17 20 15 13 11 8 8 4 1 5 7 7 9 10 9 7 4 7
22 23 24 27 24 25 25 23 20 19 14 16 13 14 16 17 14 17 19 12 15 8 17 14 13 16 16 15 13 10 7 4 1 0 3 10 13 10 8 8 9 15 16
22 24 26 27 23 25 23 22 20 21 18 18 17 17 17 20 18 21 22 17 14 12 18 19 15 16 15 13 12 10 7 6 3 1 4 9 10 12 13 14 14 16 16
25 24 26 25 26 25 24 23 23 23 25 19 20 20 20 21 23 24 29 25 21 15 13 12 12 11 11 11 9 5 2 7 7 10 10 11 12 12 14 13 13 14 13
25 25 26 25 27 22 23 21 24 20 25 25 22 22 22 21 24 22 27 29 26 21 15 12 12 13 14 14 15 15 12 15 16 15 12 11 11 11 12 11 10 12 13
26 26 26 25 26 23 23 21 21 24 28 26 25 14 14 26 26 27 23 25 23 21 22 18 17 20 19 19 18 23 22 17 14 15 13 8 8 8 9 13 16 18 17
30 29 28 29 25 28 25 24 20 22 17 23 26 20 11 15 24 31 30 27 26 24 21 16 17 17 11 26 26 25 22 20 19 13 12 10 10 12 14 14 13 16 17
34 31 31 28 28 27 27 25 25 22 25 21 19 17 16 15 21 34 33 30 26 22 23 17 15 19 25 27 26 23 23 19 17 16 14 12 10 8 11 12 14 15 14
34 34 33 28 29 26 29 27 27 27 24 28 26 28 26 25 26 27 29 22 19 19 21 14 25 26 25 24 24 24 25 20 17 13 11 9 9 10 9 11 12 14 15
30 32 34 29 26 31 26 29 27 27 26 27 30 32 41 40 32 30 31 27 24 22 13 27 27 27 27 23 25 26 23 20 15 14 9 8 8 9 8 9 12 13 14
23 29 36 34 30 32 24 29 26 29 28 28 30 37 40 40 31 27 25 24 18 22 28 33 30 27 25 28 27 25 22 19 17 12 9 8 7 8 7 8 9 12 14
22 19 27 32 29 26 34 26 29 23 24 22 28 40 42 29 27 27 24 31 33 35 31 31 31 32 27 26 22 21 19 15 14 12 9 7 7 8 6 7 10 13 15
19 20 20 23 27 27 23 25 23 23 16 23 28 36 38 21 31 39 37 34 35 34 32 32 35 35 33 31 28 23 18 16 12 12 10 7 5 6 7 7 10 12 13
12 12 18 17 21 25 23 22 16 16 24 24 24 27 28 38 38 33 34 34 33 35 37 34 34 34 31 28 23 22 19 16 13 15 12 7 5 5 4 8 9 9 11
16 19 14 16 16 18 16 13 14 12 22 25 24 28 28 29 31 33 35 39 40 39 40 37 33 30 27 24 21 20 18 14 12 15 13 9 5 3 6 6 7 9 10

GFSGL_925_spd_009.txt.gz
Wind_Speed
9 9 7 6 8 6 9 9 10 11 12 14 14 19 21 24 25 26 24 25 25 23 22 24 24 31 29 34 33 29 29 17 15 8 20 19 20 17 14 13 10 10 12
12 10 9 10 8 10 11 9 10 15 15 15 18 19 24 24 25 28 28 27 27 24 22 21 28 30 29 32 34 32 25 22 20 14 17 18 17 15 14 19 14 14 13
18 13 10 11 10 10 11 11 11 14 15 14 15 17 20 20 22 22 24 25 25 24 24 23 26 32 29 29 29 26 22 15 14 17 13 19 16 18 16 19 14 12 13
21 16 14 10 11 11 10 10 14 13 17 14 15 16 18 18 19 21 22 21 19 19 21 25 27 31 32 25 22 26 16 12 19 22 19 20 16 14 14 17 14 15 14
23 19 15 12 11 12 12 13 17 18 17 17 15 16 13 13 18 19 22 23 21 21 19 23 24 27 30 28 27 22 14 19 25 22 16 14 15 14 15 18 16 15 17
26 22 17 13 12 14 17 15 15 16 16 17 16 17 15 14 16 21 23 22 21 21 21 24 22 26 30 25 22 16 11 27 23 19 18 21 21 19 17 18 19 18 7
28 24 20 14 15 18 15 15 14 16 17 18 20 20 21 21 22 24 24 21 23 22 25 28 24 23 24 23 20 13 11 24 21 22 23 23 24 24 22 23 21 21 20
30 27 23 17 20 18 15 13 15 23 17 20 21 23 24 23 22 22 24 22 21 21 24 24 20 19 17 18 16 16 14 16 16 12 23 18 17 14 15 19 18 17 7
26 28 27 21 22 19 19 16 15 19 20 19 19 20 23 21 22 22 21 21 19 19 20 20 20 17 18 20 20 18 15 12 9 7 7 4 3 5 6 9 7 5 3
24 30 30 26 25 21 23 21 17 16 16 18 18 16 17 21 21 21 21 22 21 21 21 21 18 17 17 16 17 15 11 8 4 4 2 3 4 2 3 4 4 1 2
27 30 31 29 30 25 26 23 20 17 15 17 16 14 15 17 16 17 17 20 20 21 21 19 18 17 16 14 15 13 11 10 9 7 3 2 4 4 1 5 9 7 7
27 29 33 30 32 29 28 26 24 21 18 14 18 18 13 13 16 16 13 20 18 18 18 19 19 19 19 14 16 14 13 14 11 8 7 16 19 18 17 14 10 9 11
29 29 35 33 32 32 31 29 26 24 19 19 20 21 18 14 14 17 16 14 16 15 17 21 19 20 21 16 14 13 10 8 9 11 21 21 19 17 12 12 12 12 16
31 29 36 36 33 33 33 32 30 27 22 22 20 23 21 21 19 19 19 15 17 14 19 19 20 20 20 16 13 10 7 8 10 22 22 18 15 15 15 13 16 18 19
32 30 36 37 35 35 35 35 32 30 29 23 25 22 23 27 25 24 27 23 18 18 24 22 21 20 20 17 12 8 8 13 21 21 18 18 16 14 16 15 15 16 18
30 30 32 31 34 33 32 26 29 27 26 29 23 25 25 25 25 24 28 27 23 21 23 22 20 20 20 18 15 14 14 23 22 21 19 16 18 20 18 19 15 16 18
29 28 31 32 30 29 29 29 26 28 25 28 30 24 27 27 27 26 29 32 28 24 22 21 21 22 21 19 17 21 30 26 22 21 18 21 18 18 17 15 13 13 13
34 34 32 30 30 28 29 28 28 27 25 32 32 30 17 21 30 28 29 34 33 32 30 27 25 19 18 21 30 35 32 27 23 23 22 19 19 14 15 15 13 12 11
37 35 32 29 33 31 31 30 30 28 28 29 31 26 26 19 27 35 36 39 40 38 35 30 22 17 24 31 36 35 32 28 27 23 22 19 20 17 14 11 10 10 10
37 34 34 34 30 33 30 29 28 26 27 30 34 35 26 24 23 37 41 39 39 38 36 28 21 26 34 37 38 35 33 30 27 25 23 18 17 14 13 10 9 8 8
32 37 38 31 33 32 32 28 28 29 26 27 34 38 37 35 31 35 44 40 37 33 30 28 30 34 39 41 39 37 34 31 26 24 21 18 15 15 11 8 6 6 7
31 32 37 34 31 32 30 34 31 31 31 30 30 39 40 40 38 39 40 36 31 25 27 34 38 42 44 45 43 40 37 31 28 25 21 16 14 12 9 6 6 7 9
31 30 34 31 30 30 32 31 27 28 31 36 38 35 44 40 34 38 38 37 34 29 34 40 42 41 43 43 41 40 38 33 27 22 21 18 12 11 8 9 6 9 10
30 32 32 31 29 31 34 36 31 30 26 25 31 40 43 43 37 37 35 36 35 34 36 41 44 44 45 43 40 36 33 28 27 23 19 18 12 10 10 7 8 7 6
13 21 27 30 30 32 29 35 39 34 31 24 30 33 32 33 35 38 38 40 41 42 41 41 46 45 44 41 37 33 30 28 24 22 18 15 13 10 7 8 6 6 7
9 8 8 8 26 30 31 27 24 23 27 26 25 27 33 36 37 39 39 42 43 44 44 42 44 43 40 33 31 30 27 24 23 21 18 16 12 9 10 8 5 7 6

GFSGL_925_spd_015.txt.gz
Wind_Speed
10 6 5 2 3 5 4 3 2 4 6 8 9 10 9 9 10 11 12 13 15 15 15 19 21 22 22 24 25 20 20 16 13 15 20 25 26 27 21 15 12 10 7
10 8 7 5 5 5 5 4 5 6 6 9 11 11 12 12 12 15 16 15 15 16 17 19 21 21 24 24 25 24 24 23 23 17 19 20 29 25 18 12 10 8 7
12 11 10 7 6 6 5 5 6 8 12 12 11 13 14 15 15 15 15 15 15 15 17 19 23 26 25 25 26 24 23 23 23 20 13 20 22 20 15 10 10 7 4
15 12 10 8 7 6 8 7 8 8 11 12 12 14 14 13 14 16 16 16 16 14 14 17 21 25 28 27 24 22 24 25 23 20 18 17 17 16 12 12 10 7 3
16 14 9 9 8 7 9 9 9 10 10 16 17 14 13 13 16 17 18 19 16 15 16 18 19 23 26 27 29 28 27 24 22 19 13 11 10 15 11 9 10 6 2
19 16 12 11 10 10 11 11 11 8 13 15 14 13 13 13 13 15 15 14 14 14 17 18 19 22 24 24 23 22 23 24 21 16 10 11 12 13 12 10 9 4 1
22 19 17 14 12 13 12 9 9 10 14 14 12 11 11 15 13 14 9 9 13 16 18 19 21 24 26 27 22 18 14 15 15 14 14 14 15 15 13 10 9 6 3
25 22 19 16 13 15 14 11 10 10 10 13 12 9 11 14 15 14 12 13 14 15 18 25 24 24 23 21 18 10 5 8 11 10 8 11 8 10 10 7 6 7 8
27 26 22 18 17 16 15 13 11 12 12 14 13 14 17 17 15 14 14 14 15 15 19 21 26 26 25 19 10 4 5 10 10 8 6 5 6 8 10 8 10 11 4
29 29 26 22 21 17 15 14 14 15 16 15 16 15 15 17 14 13 13 15 16 18 15 18 21 20 20 14 9 9 14 13 9 10 14 13 12 11 10 7 9 8 6
34 30 28 25 26 21 18 18 16 16 16 16 15 14 14 14 15 13 14 16 19 20 19 18 19 18 16 13 12 15 17 19 17 18 16 15 16 16 16 14 12 9 10
35 33 30 28 27 24 23 23 21 20 18 16 15 13 12 13 13 14 14 16 18 19 19 17 16 15 16 18 17 16 14 16 17 16 17 18 19 18 16 12 9 9 11
34 34 33 32 30 28 27 25 25 23 22 20 18 16 15 14 13 15 14 15 16 16 17 17 15 15 14 14 15 15 18 18 18 20 20 20 19 19 18 17 17 20 21
33 35 34 33 32 30 30 29 28 27 26 23 21 20 19 18 18 17 17 15 16 16 16 17 17 17 14 15 18 18 18 19 20 21 23 23 22 21 20 19 23 22 20
34 32 32 33 35 33 32 32 32 30 30 29 27 24 22 21 23 21 20 19 20 19 18 19 20 20 20 21 21 20 20 21 21 23 24 25 23 21 23 23 23 14 17
29 28 30 29 32 30 29 28 30 30 29 28 28 26 25 22 19 20 21 21 19 22 21 24 26 26 26 26 25 22 21 21 22 26 27 26 25 24 24 22 19 19 18
33 30 30 30 30 27 26 24 24 27 29 28 27 26 25 24 24 21 21 22 23 22 25 27 30 30 32 31 28 26 25 25 28 30 28 27 27 27 26 25 22 22 19
34 34 34 30 30 29 28 28 26 24 24 28 30 27 25 25 25 24 22 23 23 26 27 28 31 33 33 33 30 29 27 28 32 31 30 29 29 30 29 26 26 23 21
33 34 33 32 31 31 30 27 29 26 25 27 29 28 28 27 26 25 26 30 31 32 32 30 32 34 35 35 34 32 30 32 35 35 33 31 31 31 28 26 24 19 17
33 35 35 31 29 30 29 27 25 26 26 28 31 34 30 29 29 27 28 32 33 36 37 37 35 35 36 35 35 34 32 35 37 36 35 34 33 32 31 29 23 20 14
30 33 35 30 31 31 29 28 28 26 27 28 34 34 34 35 36 36 32 32 37 39 39 39 41 38 36 34 34 36 36 37 40 39 39 37 34 31 26 22 21 18 17
30 32 36 32 29 29 29 29 28 29 30 29 33 34 34 36 37 38 40 41 36 37 41 42 41 42 42 39 37 36 35 37 40 39 38 38 35 33 33 30 22 19 18
31 33 31 27 29 29 30 30 31 31 30 31 34 35 34 36 39 40 42 42 42 40 38 42 43 41 40 41 41 38 37 39 43 44 39 39 38 35 30 21 21 20 19
34 31 32 30 29 30 31 30 31 33 32 32 35 36 36 37 38 40 42 43 41 41 40 40 42 44 42 40 41 39 37 37 42 40 41 37 32 28 20 23 22 20 17
32 31 31 30 29 32 31 32 34 33 37 34 37 37 39 39 38 37 38 38 39 38 39 38 38 38 37 36 36 35 35 37 40 41 39 32 25 22 25 22 21 18 17
33 34 33 30 29 30 28 30 33 33 34 37 39 39 39 38 39 38 36 34 33 33 32 33 34 34 33 32 33 32 36 38 39 37 34 29 27 26 25 23 22 21 18

GFSGL_925_spd_021.txt.gz
Wind_Speed
8 6 5 3 3 4 3 2 5 8 8 8 8 6 6 7 6 7 7 7 8 9 8 8 9 12 12 14 12 16 22 21 13 15 30 39 33 37 32 28 24 21 17
8 6 5 5 3 4 4 4 6 7 8 8 8 7 6 7 7 8 8 7 8 8 8 9 12 13 13 16 12 13 20 21 27 24 29 29 32 33 30 27 22 18 15
8 7 6 5 4 5 5 4 5 8 10 9 9 8 9 10 11 8 9 9 8 8 9 11 12 15 19 15 15 14 18 24 28 29 23 26 30 32 28 24 19 17 15
9 8 7 6 4 6 6 6 8 9 10 10 9 9 10 10 10 11 10 10 11 11 10 10 12 12 15 16 18 20 24 24 26 26 26 22 22 30 27 24 18 15 13
10 9 7 7 6 8 7 6 9 10 10 10 11 10 11 12 13 12 12 11 12 12 11 10 11 11 15 18 20 22 25 24 24 23 20 22 19 23 22 22 22 15 12
11 9 8 8 8 9 8 8 9 10 11 11 10 10 9 10 16 16 15 13 12 12 14 12 13 15 16 17 21 22 26 27 24 21 21 20 20 21 24 27 17 18 10
12 10 10 9 10 11 9 9 10 11 10 9 10 10 12 15 16 16 14 12 12 13 14 16 18 17 16 18 20 20 24 26 27 27 28 27 24 27 24 18 15 13 14
14 13 12 11 10 10 10 9 10 10 9 8 10 11 15 16 13 10 12 11 14 13 14 18 21 19 23 21 24 26 25 24 18 22 27 32 22 20 20 17 16 18 17
17 15 15 14 13 11 11 10 9 10 9 7 9 14 17 17 10 10 12 13 15 15 16 19 21 19 22 19 23 24 17 15 14 15 17 20 20 20 18 19 17 16 13
19 18 17 14 14 12 10 10 9 12 12 12 14 15 14 14 12 11 14 18 20 20 20 21 25 26 21 15 13 14 14 14 18 21 19 21 21 18 18 11 15 12 12
20 19 18 16 15 13 11 10 12 14 15 14 15 13 14 14 13 13 15 15 21 19 18 21 22 19 13 8 12 12 15 19 19 17 17 17 16 16 13 11 12 9 10
21 21 19 17 15 14 13 12 12 14 16 14 15 13 11 12 13 13 14 16 18 20 19 20 23 18 11 9 11 14 17 19 17 17 15 14 13 12 12 13 12 11 8
21 22 21 19 17 15 14 14 14 13 14 14 14 13 12 12 13 14 14 17 16 13 15 17 18 15 9 7 10 15 17 14 15 14 13 13 12 13 17 17 17 17 18
23 23 22 21 19 17 15 15 15 15 14 13 13 14 13 12 13 13 16 17 16 14 15 15 14 13 12 12 15 14 10 10 11 12 13 13 14 15 15 14 15 13 13
25 24 23 22 22 20 18 18 17 16 16 16 14 14 15 14 15 17 18 16 15 14 17 14 12 10 11 12 12 12 10 11 10 11 14 16 15 15 13 12 12 10 8
26 25 26 24 23 21 20 15 20 18 20 18 16 15 14 13 16 17 16 15 16 17 15 14 14 14 15 15 14 13 13 14 14 14 16 17 17 17 15 14 11 9 12
30 27 26 26 24 22 21 21 18 18 20 21 19 17 16 16 17 17 17 15 15 18 14 15 16 16 16 15 15 16 16 16 15 16 18 18 18 17 19 16 14 13 13
33 34 30 29 26 25 23 22 21 19 19 18 23 22 20 19 16 18 21 20 18 20 16 16 17 17 17 17 17 17 16 16 17 17 17 17 18 18 20 17 16 14 13
31 30 30 30 28 27 24 23 22 21 20 19 17 21 25 23 22 20 21 20 19 19 20 19 18 17 17 18 18 18 18 18 19 19 18 19 19 19 18 17 15 14 14
31 31 33 29 27 27 27 25 24 23 22 21 21 21 19 25 19 21 25 21 21 21 20 21 20 19 19 19 19 19 18 19 19 19 19 20 20 21 21 21 21 25 23
29 27 34 29 29 30 29 28 26 24 24 23 24 23 27 26 26 25 23 24 24 24 24 22 21 22 21 20 20 21 22 22 23 24 22 22 23 23 21 21 22 22 25
30 28 32 30 27 28 29 28 27 25 24 23 23 22 30 31 25 25 25 25 26 27 25 24 24 23 21 21 21 21 23 24 24 24 24 24 24 25 24 25 25 24 26
29 29 29 29 28 27 26 28 27 27 26 25 24 22 22 26 27 26 25 25 25 26 26 26 25 25 24 24 25 27 27 28 29 28 27 26 26 27 29 30 35 30 32
27 28 29 29 26 26 27 27 28 29 28 27 25 24 24 23 25 27 28 26 25 25 25 26 28 29 27 25 24 26 26 26 25 28 30 29 31 34 34 34 30 33 32
21 21 20 23 26 28 27 27 28 28 27 28 26 25 25 23 23 24 24 25 25 25 25 25 25 26 29 30 28 28 27 31 28 26 28 30 38 39 39 42 43 40 32
20 18 11 11 18 22 25 24 26 26 27 26 27 27 26 25 25 24 24 24 24 23 22 22 25 28 29 31 33 31 31 30 31 31 33 35 37 37 36 41 45 39 32

GFSGL_925_spd_024.txt.gz
Wind_Speed
11 8 6 4 3 3 3 5 6 9 10 7 6 4 4 4 3 3 4 5 5 7 8 6 6 8 9 11 12 11 12 15 9 15 32 37 42 43 32 33 30 27 23
10 8 6 4 3 3 4 6 8 9 9 9 7 5 4 3 3 4 5 5 7 7 6 7 9 11 11 11 9 13 15 20 23 22 31 38 34 36 34 31 27 24 23
10 8 7 5 2 4 4 7 8 9 9 9 8 5 4 4 5 5 6 7 8 8 8 9 10 12 13 11 12 16 21 30 29 27 27 32 33 35 33 29 25 23 18
9 8 7 5 4 6 5 7 9 9 9 9 7 6 6 5 5 6 7 8 8 9 9 9 11 13 15 14 15 18 25 27 28 25 30 30 27 30 29 30 24 22 15
10 9 7 6 7 7 8 9 9 10 10 10 10 9 7 7 6 7 8 9 9 8 10 9 10 11 13 13 15 18 25 25 24 28 24 23 24 25 23 22 24 19 16
10 9 8 8 9 8 9 9 10 11 11 11 10 9 8 7 10 10 9 10 10 10 11 13 13 14 14 13 16 22 26 27 23 24 25 22 22 24 27 27 24 21 12
12 10 10 9 11 10 10 11 11 11 10 10 10 9 8 11 13 11 11 9 10 11 12 15 14 15 14 20 20 21 25 27 26 28 26 23 26 27 33 21 21 19 17
13 12 12 11 12 10 10 12 11 11 9 8 11 11 11 10 12 11 9 9 10 11 12 14 15 17 17 19 22 24 23 24 26 30 34 33 30 29 22 19 16 17 20
15 14 13 12 12 11 10 12 11 11 9 8 10 11 11 12 9 10 8 10 12 12 13 14 17 18 22 25 28 26 24 23 22 29 26 28 26 20 19 19 17 20 17
18 16 15 14 13 11 10 11 12 12 11 11 12 13 15 11 9 10 8 13 12 14 15 15 20 21 21 25 22 20 21 23 26 27 27 17 21 23 20 16 19 15 15
19 17 17 15 14 12 10 10 13 13 13 14 13 13 12 12 10 11 13 16 16 16 17 19 22 19 17 17 14 15 20 27 24 23 22 19 16 16 13 9 10 8 14
21 19 18 17 16 14 12 11 12 13 13 14 14 14 11 11 12 14 12 17 17 21 20 19 20 14 13 18 14 19 25 22 21 21 20 19 17 14 10 10 10 10 7
23 21 19 19 17 16 15 14 13 14 13 14 13 14 14 12 11 14 15 18 18 20 20 19 20 13 12 12 15 23 21 16 18 18 17 16 14 13 13 14 13 12 12
24 23 21 20 19 18 16 16 14 14 14 13 13 13 15 15 15 15 18 17 14 19 19 17 16 12 9 12 18 17 14 15 16 16 15 15 14 15 14 13 14 13 12
25 25 23 21 21 19 18 18 16 15 13 13 12 14 16 16 18 19 20 18 17 18 18 16 14 13 13 14 14 13 13 13 13 14 16 16 16 15 14 14 14 14 11
27 26 25 23 23 21 20 15 14 14 17 12 11 11 13 11 19 22 21 19 18 21 17 16 16 16 17 18 17 16 15 15 14 14 15 16 17 17 16 15 14 13 12
29 27 26 25 24 23 22 20 19 14 17 18 16 16 10 15 18 21 20 18 18 18 15 15 15 16 17 18 19 19 18 17 16 16 16 17 17 17 17 16 15 13 12
32 32 27 28 25 24 24 22 20 21 20 18 22 19 18 14 19 21 21 18 16 18 16 16 17 17 18 18 19 19 19 18 18 18 18 18 18 18 18 18 17 16 16
33 30 29 27 25 25 24 23 22 21 21 21 21 22 22 22 18 20 22 20 19 19 19 17 16 17 18 19 20 20 20 21 20 20 20 20 21 21 20 19 19 20 20
33 32 33 26 25 25 24 24 23 22 21 21 23 23 23 23 20 20 22 22 22 22 22 23 21 20 20 21 21 21 22 21 22 23 23 23 22 22 20 20 19 19 21
32 31 34 27 26 26 26 25 24 24 23 23 23 23 26 26 26 26 26 28 29 26 26 25 25 25 24 23 23 23 24 24 24 25 24 24 23 23 23 23 23 23 23
32 31 34 33 28 27 27 26 25 25 24 24 23 22 27 27 26 27 27 28 30 30 28 27 26 26 27 27 27 26 26 26 26 25 24 24 24 25 24 24 25 24 25
30 30 30 33 31 28 27 27 27 27 26 25 25 25 25 28 29 27 27 27 27 28 29 29 28 27 27 28 27 28 28 27 27 26 27 28 29 27 27 27 28 27 27
27 28 28 29 31 31 30 30 29 28 28 27 27 27 26 27 28 30 29 27 27 27 27 28 29 30 29 28 28 28 28 27 26 27 29 27 27 27 27 26 28 27 27
26 26 27 27 29 29 28 27 28 28 28 28 28 28 28 28 26 28 29 30 28 27 28 28 27 29 31 31 30 29 29 30 29 25 24 26 27 28 31 28 29 29 32
24 24 25 25 25 26 26 23 23 23 25 26 28 28 29 29 29 28 28 29 30 30 29 27 28 29 28 30 34 33 31 32 32 32 28 24 25 26 30 29 32 35 35

GFSGL_925_spd_027.txt.gz
Wind_Speed
12 10 9 7 4 6 4 3 7 7 7 7 5 4 4 4 4 4 5 6 6 7 4 4 4 6 9 12 16 12 11 14 11 17 28 33 35 40 37 42 33 31 27
12 9 9 6 3 4 5 6 9 9 8 8 8 4 3 3 5 4 4 4 5 6 6 5 6 6 9 12 10 11 11 16 28 20 25 34 40 35 40 33 32 31 27
12 10 9 4 4 6 5 6 8 9 8 7 8 5 3 5 7 5 5 5 6 5 5 6 7 8 7 7 11 15 18 23 25 34 28 34 32 36 33 33 32 29 25
11 11 9 5 7 7 7 7 8 9 8 7 7 6 6 6 6 6 6 5 6 6 5 6 9 12 7 7 13 21 26 27 27 32 34 31 27 31 32 32 28 28 24
12 12 12 7 9 6 10 9 9 8 9 8 8 8 7 7 6 7 6 5 6 8 9 11 11 13 10 9 19 25 26 30 28 29 27 25 27 28 27 28 28 24 20
12 12 14 9 11 6 10 10 10 9 12 11 10 9 8 7 10 9 6 5 6 10 15 14 14 13 12 11 20 28 29 32 28 27 26 24 23 27 31 29 24 21 10
13 13 16 11 14 6 9 12 11 9 10 11 9 9 9 11 10 10 8 4 6 12 13 15 15 15 16 20 21 26 29 29 30 31 29 24 27 31 33 25 24 17 15
14 13 16 14 12 9 8 10 11 11 11 10 9 11 12 10 11 11 7 5 10 11 11 13 15 16 19 19 25 28 30 29 32 30 32 35 37 37 28 26 26 22 22
15 14 14 19 13 13 10 11 10 10 9 11 10 11 12 10 10 10 2 6 11 13 13 15 15 18 19 22 28 32 30 30 30 31 34 31 31 29 20 19 19 20 18
17 15 15 17 16 11 13 11 11 10 10 10 10 11 12 9 8 8 5 9 14 19 20 20 21 22 23 21 27 28 29 32 32 31 28 25 25 24 9 16 19 18 18
18 17 16 15 13 12 11 12 12 10 12 12 11 11 9 8 8 8 9 11 14 19 21 20 22 27 23 20 20 26 30 34 32 28 22 23 18 17 17 17 16 3 18
20 19 17 17 15 13 11 12 13 13 13 12 13 12 10 9 9 9 12 11 16 19 19 18 19 18 16 18 16 24 30 30 29 25 20 19 18 19 16 9 8 10 12
21 20 19 18 15 15 12 12 14 14 13 12 12 12 11 12 10 9 12 15 12 16 18 18 16 16 17 14 22 29 30 25 24 22 20 20 20 17 15 11 11 9 9
22 21 21 19 17 16 14 13 13 14 12 14 15 15 15 15 13 13 15 12 15 16 19 17 17 13 11 19 25 24 15 19 21 20 20 19 15 15 14 13 11 10 10
23 23 22 21 19 18 16 14 13 10 9 10 10 19 15 15 16 18 19 17 19 20 19 15 12 12 15 17 18 16 15 19 20 19 19 18 16 17 16 15 14 14 11
23 24 23 22 23 20 19 14 7 12 8 5 8 10 11 15 25 22 19 18 19 23 17 16 15 16 17 19 19 16 16 17 17 17 17 17 18 18 16 16 15 15 14
25 25 24 22 23 22 21 19 18 8 15 9 8 6 15 25 24 25 21 17 17 22 15 16 17 17 18 20 20 20 18 19 16 16 16 16 16 17 17 16 17 17 16
27 26 24 25 23 23 22 21 20 20 18 16 13 10 12 18 19 25 24 20 18 20 20 18 17 18 19 20 21 21 22 20 20 19 18 18 18 19 19 20 20 20 19
30 27 27 25 23 23 22 22 21 21 21 20 20 16 16 18 20 23 25 22 21 22 22 20 19 19 20 21 21 23 23 23 23 22 20 21 21 22 21 21 21 22 20
31 29 30 25 24 23 23 22 21 21 22 23 24 24 19 22 19 20 23 23 23 23 23 23 21 21 22 23 23 23 23 22 21 24 25 24 24 24 25 24 23 22 21
31 29 32 25 25 25 24 24 23 23 22 23 25 28 32 30 27 27 27 27 27 25 24 25 25 24 23 23 24 24 25 25 26 25 24 24 24 25 26 24 22 22 21
30 30 32 30 26 26 26 25 24 24 24 23 23 23 38 32 31 30 30 30 31 30 28 25 26 26 27 27 26 26 27 26 25 25 25 26 27 26 25 25 23 22 21
30 31 30 31 28 27 27 27 26 25 25 25 24 22 36 31 28 30 31 30 30 31 30 29 27 27 27 27 28 28 28 28 27 28 29 28 27 26 25 24 25 23 23
31 31 30 30 30 29 27 27 27 27 27 26 25 25 29 30 28 29 28 29 30 30 30 30 31 31 28 26 26 27 30 28 27 28 29 28 27 25 26 25 24 24 22
28 28 28 28 29 29 28 27 26 27 27 26 25 26 26 27 28 29 29 30 28 30 30 30 30 30 32 32 30 30 29 31 31 29 26 28 27 25 24 23 21 19 23
28 28 27 26 27 27 27 26 26 27 27 27 26 25 27 27 28 28 29 29 32 31 31 30 31 32 31 31 34 34 33 32 32 33 29 23 22 23 23 22 22 21 25

GFSGL_925_spd_030.txt.gz
Wind_Speed
16 12 14 9 7 7 5 5 8 6 9 7 7 5 5 4 3 4 8 6 5 3 2 1 2 2 7 13 16 18 18 21 12 15 24 32 36 39 37 39 41 38 33
15 19 14 8 11 6 8 8 10 8 8 8 8 5 5 6 4 2 4 4 5 5 3 2 1 2 14 20 19 18 18 24 26 21 26 28 34 37 37 39 37 35 34
15 19 13 9 6 8 7 11 11 10 8 7 6 6 7 8 6 4 5 3 4 3 2 3 11 10 13 16 17 20 22 27 25 28 24 28 31 38 33 37 35 36 32
14 21 15 8 9 8 8 8 6 12 10 8 8 8 8 6 5 5 4 2 3 3 4 5 6 9 10 14 18 20 26 26 32 31 30 30 28 32 35 36 31 32 29
17 18 15 11 9 9 9 10 4 12 10 13 11 10 7 7 5 5 4 2 4 7 9 10 14 11 11 17 22 25 29 27 32 29 28 26 27 29 27 28 30 29 24
23 18 16 15 11 10 11 10 9 5 11 12 11 10 5 8 8 6 6 5 7 12 12 15 13 12 13 18 26 31 35 32 33 28 28 25 20 27 34 30 30 24 8
15 18 15 18 12 13 12 13 12 11 12 14 14 10 9 12 9 8 7 8 13 13 15 17 16 15 20 27 28 32 31 32 34 36 33 30 31 37 34 27 24 19 16
14 18 14 16 12 8 14 14 13 13 13 13 12 15 11 10 11 8 10 9 13 14 15 16 18 19 21 25 31 33 32 32 31 30 36 37 39 41 36 36 24 21 27
15 20 18 16 15 11 14 15 13 12 12 15 15 16 10 11 10 8 12 12 15 15 17 17 20 22 21 27 33 32 31 31 31 34 36 35 36 33 24 28 22 26 19
16 17 22 16 18 13 14 12 11 10 10 9 13 16 9 7 9 8 12 15 21 20 17 18 19 18 23 29 33 34 31 34 33 31 30 31 32 23 26 19 25 22 20
18 18 24 20 18 17 16 14 13 13 13 14 14 14 9 7 8 9 13 18 20 17 18 21 21 20 19 27 30 32 35 37 35 34 32 33 30 21 17 21 19 23 24
19 17 22 21 17 16 17 15 12 16 15 16 17 13 10 8 10 10 12 15 21 20 19 22 21 20 18 22 27 31 33 33 29 27 24 25 23 20 14 17 14 12 16
20 18 23 18 22 16 19 18 13 13 15 14 14 15 14 11 11 15 15 16 14 21 19 22 18 17 16 17 23 31 32 25 25 21 20 19 21 20 16 14 11 8 14
21 21 23 18 23 19 14 20 15 14 15 15 14 15 15 16 14 17 17 16 22 22 20 19 18 16 16 24 29 31 24 24 25 20 20 21 19 20 20 16 13 12 15
22 22 21 18 21 20 16 14 17 7 10 20 21 20 19 17 17 21 21 21 22 24 23 21 18 17 22 27 25 27 24 25 24 22 22 21 23 23 17 16 16 16 11
23 22 22 20 17 19 16 12 4 11 7 14 20 22 21 19 23 23 22 21 22 23 19 16 16 19 20 20 21 20 18 27 25 23 22 21 19 20 21 23 20 21 18
24 23 22 20 22 19 18 16 11 10 11 8 12 19 22 27 24 26 21 24 24 24 17 18 18 20 23 22 21 19 18 26 23 27 26 26 24 25 26 25 24 22 19
27 25 23 22 24 20 20 19 19 15 13 14 12 15 17 28 26 27 21 22 28 25 16 17 18 19 22 26 25 22 18 25 25 20 27 27 25 25 25 23 23 21 21
29 24 25 26 21 24 22 21 21 22 18 17 19 21 28 27 27 26 25 21 20 19 19 17 20 22 21 21 25 25 27 24 29 25 19 24 26 24 23 23 23 24 23
29 25 28 23 21 25 21 22 20 22 24 22 22 22 30 30 30 30 30 25 21 21 21 22 20 18 24 23 20 24 24 25 26 29 30 26 25 28 26 25 26 23 28
27 29 29 24 24 22 22 21 21 20 24 25 27 30 36 31 25 27 30 29 27 24 25 25 25 23 19 24 27 26 25 23 28 29 29 29 28 26 27 26 25 27 22
28 27 27 27 21 23 24 22 23 21 20 23 26 33 39 40 29 27 27 29 32 31 27 25 27 28 27 23 23 26 26 28 27 28 27 28 29 28 25 27 27 22 24
30 28 29 30 28 22 27 25 22 23 23 23 23 27 44 35 32 31 31 32 31 31 32 31 28 26 29 29 31 30 28 29 28 30 31 32 29 27 27 28 25 26 22
29 27 27 30 30 26 24 26 26 26 25 24 24 24 37 35 32 34 33 32 33 33 34 35 37 34 28 28 29 33 36 34 32 31 30 30 30 29 28 25 27 26 26
23 27 23 28 30 32 24 27 27 25 27 25 25 25 34 37 36 34 32 34 34 33 35 37 36 36 39 38 30 30 29 32 35 33 29 28 31 30 29 30 27 26 27
17 16 25 19 28 29 32 22 29 30 27 30 28 28 28 35 35 34 35 35 33 33 35 35 37 39 37 37 40 38 33 33 32 35 36 32 23 27 31 31 27 28 29

GFSGL_925_spd_033.txt.gz
Wind_Speed
19 16 15 13 12 11 9 9 9 12 10 8 7 7 7 5 3 5 5 5 6 4 3 4 4 4 8 6 8 21 20 20 10 11 18 31 36 37 38 42 41 41 38
19 16 15 14 11 9 10 11 12 11 11 9 7 7 6 6 5 4 4 5 4 5 5 6 4 3 7 10 19 20 26 27 26 17 22 27 36 39 41 36 35 40 37
20 17 15 15 10 9 11 12 13 11 10 9 7 12 8 8 6 6 3 2 6 5 5 5 7 8 15 19 21 23 24 28 26 25 23 29 28 36 36 35 34 36 36
19 20 19 12 11 11 11 13 12 12 10 10 12 13 9 9 6 5 3 3 3 7 7 11 9 11 20 20 21 24 27 28 26 26 26 27 30 32 39 38 33 32 32
21 20 18 15 11 11 11 11 7 12 13 17 13 11 10 7 6 5 3 3 4 11 15 15 12 12 19 18 22 25 29 27 28 22 25 28 30 30 30 30 30 33 30
23 22 18 15 11 11 12 10 9 11 17 13 11 14 9 10 6 5 5 6 8 13 17 16 13 15 17 20 23 28 36 35 29 25 27 27 22 29 32 32 34 26 8
22 23 21 18 14 13 12 11 11 17 17 15 15 12 12 11 6 7 8 11 13 15 16 15 15 17 20 23 25 33 30 34 37 37 32 30 31 36 36 30 27 22 16
21 22 23 19 15 15 15 13 13 15 16 16 14 11 14 11 7 8 12 13 16 17 15 16 19 22 27 30 30 31 29 32 32 29 43 39 43 38 38 34 27 18 26
20 23 25 19 16 19 17 16 15 16 17 15 16 13 14 12 9 11 14 15 17 17 16 17 19 23 29 33 35 33 30 27 31 34 36 37 38 35 30 28 22 27 17
25 25 25 23 20 21 18 16 13 13 18 20 16 14 13 12 9 11 14 19 20 19 18 18 16 19 30 36 35 36 30 31 32 31 28 30 32 28 30 23 30 25 19
27 27 25 23 21 18 17 16 15 16 18 19 17 13 12 11 10 12 14 19 21 20 21 17 20 22 30 33 37 36 35 36 32 30 27 32 25 24 25 17 25 28 26
28 27 27 25 22 21 20 18 17 18 17 18 16 13 10 11 12 13 15 16 17 23 22 21 19 23 27 30 31 30 34 34 27 26 30 33 25 21 23 18 18 20 19
31 28 29 28 24 23 24 21 21 20 20 19 19 16 14 12 13 12 17 16 19 25 24 22 20 20 25 25 26 30 30 29 26 26 26 28 25 20 15 19 17 12 16
31 30 30 31 26 23 23 22 23 23 20 18 17 17 16 16 18 17 19 18 21 26 23 20 21 21 22 24 27 31 28 29 31 26 25 28 25 19 19 20 18 14 14
32 32 29 30 26 24 22 21 21 23 23 24 21 23 21 19 23 22 23 26 25 24 22 21 18 21 25 28 29 25 26 28 25 26 26 26 27 25 23 21 18 18 17
27 28 27 29 27 25 19 12 15 15 27 23 22 24 21 21 25 26 25 24 24 25 23 22 19 24 23 24 27 26 26 31 30 28 27 28 28 27 26 24 22 23 22
28 27 29 29 27 26 22 21 17 12 20 26 23 22 22 22 26 27 25 22 24 24 23 20 21 26 25 24 27 28 28 30 31 29 28 29 29 28 28 27 25 23 23
34 34 31 29 28 28 25 24 23 21 19 20 28 26 25 24 30 27 25 25 27 23 21 21 23 28 30 30 31 32 30 26 27 32 32 34 33 31 30 29 29 28 28
35 33 31 28 30 28 29 27 25 24 23 22 22 27 32 28 33 30 28 31 30 30 27 22 25 28 31 34 32 30 29 24 30 35 33 36 35 32 30 31 33 33 32
34 33 32 30 26 30 30 27 25 26 26 27 26 28 35 33 35 35 33 33 32 32 33 30 22 25 30 34 34 33 32 29 34 35 31 34 38 37 36 35 36 36 35
31 33 35 29 29 29 28 27 26 28 26 28 31 35 39 39 35 36 36 32 29 31 35 35 33 28 27 28 36 41 40 38 38 36 37 38 34 40 39 36 34 36 35
33 33 36 31 27 27 29 29 33 27 29 26 28 35 40 40 36 36 38 40 40 36 35 34 35 35 35 31 32 37 35 38 39 40 41 41 42 40 38 39 38 36 35
31 32 32 30 32 26 28 34 31 34 29 31 29 31 42 40 34 36 38 42 43 44 42 36 33 36 34 34 34 33 42 42 40 37 36 39 41 40 41 39 38 39 35
23 29 31 31 28 31 26 30 33 34 36 32 34 33 43 44 39 38 40 41 43 46 46 47 46 42 35 35 38 36 36 35 35 37 38 40 39 39 40 42 40 37 37
15 14 26 28 28 29 29 26 32 35 34 36 35 36 41 42 42 41 40 41 42 42 44 44 47 49 50 45 41 33 39 42 42 42 39 38 38 40 41 40 40 38 36
17 17 8 22 31 32 31 30 30 35 35 34 36 37 37 40 42 41 40 42 43 43 44 43 43 42 41 41 44 49 46 37 32 36 42 41 41 38 38 40 40 39 37